| time (UTC) | temp F | wind direction | speed MPH | gust MPH | rain 1hr in | rain 24hr in | rain mn in | humidity % | barometer mb |
| 20260510141559 | 61 | 338 | 2.0 | 3.0 | 0.00 | 0.00 | 0.00 | 76 | 1016.2 |
| 20260510140109 | 60 | 58 | 1.0 | 3.0 | 0.00 | 0.00 | 0.00 | 79 | 1016.2 |
| 20260510134605 | 58 | 52 | 2.0 | 3.0 | 0.00 | 0.00 | 0.00 | 80 | 1016.3 |
| 20260510133057 | 57 | 71 | 0.0 | 0.0 | 0.00 | 0.00 | 0.00 | 82 | 1016.5 |
| 20260510131603 | 55 | 0 | 0.0 | 2.0 | 0.00 | 0.00 | 0.00 | 85 | 1016.5 |
| 20260510130053 | 54 | 155 | 0.0 | 1.0 | 0.00 | 0.00 | 0.00 | 88 | 1016.5 |
| 20260510124558 | 51 | 0 | 0.0 | 2.0 | 0.00 | 0.00 | 0.00 | 92 | 1016.8 |
| 20260510123104 | 50 | 185 | 1.0 | 3.0 | 0.00 | 0.00 | 0.00 | 93 | 1016.7 |
| 20260510121553 | 49 | 153 | 2.0 | 3.0 | 0.00 | 0.00 | 0.00 | 93 | 1016.6 |
| 20260510120053 | 49 | 131 | 1.0 | 4.0 | 0.00 | 0.00 | 0.00 | 93 | 1016.4 |
| 20260510114550 | 49 | 181 | 0.0 | 2.0 | 0.00 | 0.00 | 0.00 | 93 | 1016.3 |
| 20260510113102 | 49 | 162 | 0.0 | 2.0 | 0.00 | 0.00 | 0.00 | 93 | 1016.4 |
| 20260510111608 | 49 | 51 | 0.0 | 2.0 | 0.00 | 0.00 | 0.00 | 93 | 1016.3 |
| 20260510110055 | 49 | 0 | 0.0 | 3.0 | 0.00 | 0.00 | 0.00 | 93 | 1016.1 |
| 20260510104555 | 49 | 0 | 0.0 | 1.0 | 0.00 | 0.00 | 0.00 | 93 | 1016.0 |
| 20260510103100 | 49 | 40 | 1.0 | 3.0 | 0.00 | 0.00 | 0.00 | 94 | 1015.7 |
| 20260510101554 | 49 | 24 | 1.0 | 3.0 | 0.00 | 0.00 | 0.00 | 94 | 1015.4 |
| 20260510100056 | 49 | 35 | 1.0 | 4.0 | 0.00 | 0.00 | 0.00 | 94 | 1015.3 |
| 20260510094558 | 49 | 25 | 1.0 | 3.0 | 0.00 | 0.00 | 0.00 | 94 | 1015.2 |
| 20260510093104 | 49 | 0 | 0.0 | 0.0 | 0.00 | 0.00 | 0.00 | 94 | 1015.2 |
| 20260510091554 | 49 | 56 | 0.0 | 1.0 | 0.00 | 0.00 | 0.00 | 94 | 1015.0 |
| 20260510090112 | 49 | 82 | 1.0 | 1.0 | 0.00 | 0.00 | 0.00 | 94 | 1014.7 |
| 20260510084556 | 49 | 0 | 0.0 | 2.0 | 0.00 | 0.00 | 0.00 | 94 | 1014.6 |
| 20260510083105 | 49 | 157 | 0.0 | 2.0 | 0.00 | 0.00 | 0.00 | 94 | 1014.4 |
| 20260510081608 | 49 | 0 | 0.0 | 1.0 | 0.00 | 0.00 | 0.00 | 93 | 1014.2 |
| 20260510080059 | 49 | 174 | 1.0 | 3.0 | 0.00 | 0.00 | 0.00 | 94 | 1014.2 |
| 20260510074605 | 49 | 169 | 0.0 | 2.0 | 0.00 | 0.00 | 0.00 | 93 | 1014.1 |
| 20260510073055 | 49 | 167 | 1.0 | 2.0 | 0.00 | 0.00 | 0.00 | 93 | 1014.0 |
| 20260510071553 | 49 | 189 | 1.0 | 3.0 | 0.00 | 0.00 | 0.00 | 93 | 1014.1 |
| 20260510070058 | 49 | 158 | 1.0 | 3.0 | 0.00 | 0.00 | 0.00 | 93 | 1013.9 |
| 20260510064604 | 49 | 0 | 0.0 | 0.0 | 0.00 | 0.00 | 0.00 | 93 | 1013.8 |
| 20260510063057 | 49 | 0 | 0.0 | 0.0 | 0.00 | 0.00 | 0.00 | 93 | 1013.9 |
| 20260510061558 | 48 | 0 | 0.0 | 0.0 | 0.00 | 0.00 | 0.00 | 93 | 1013.8 |
| 20260510060057 | 48 | 0 | 0.0 | 0.0 | 0.00 | 0.00 | 0.00 | 93 | 1013.8 |
| 20260510054551 | 49 | 0 | 0.0 | 0.0 | 0.00 | 0.00 | 0.00 | 92 | 1013.9 |
| 20260510053051 | 49 | 0 | 0.0 | 0.0 | 0.00 | 0.00 | 0.00 | 92 | 1013.9 |
| 20260510051558 | 49 | 0 | 0.0 | 0.0 | 0.00 | 0.00 | 0.00 | 92 | 1013.9 |
| 20260510050056 | 50 | 0 | 0.0 | 0.0 | 0.00 | 0.00 | 0.00 | 91 | 1013.8 |
| 20260510044637 | 50 | 0 | 0.0 | 0.0 | 0.00 | 0.00 | 0.00 | 91 | 1013.7 |
| 20260510043052 | 50 | 0 | 0.0 | 0.0 | 0.00 | 0.00 | 0.00 | 90 | 1013.8 |
| 20260510041552 | 51 | 0 | 0.0 | 0.0 | 0.00 | 0.00 | 0.00 | 89 | 1013.6 |
| 20260510040054 | 51 | 0 | 0.0 | 0.0 | 0.00 | 0.00 | 0.00 | 89 | 1013.6 |
| 20260510034553 | 52 | 0 | 0.0 | 0.0 | 0.00 | 0.00 | 0.00 | 87 | 1013.5 |
| 20260510033056 | 52 | 0 | 0.0 | 0.0 | 0.00 | 0.00 | 0.00 | 87 | 1013.4 |
| 20260510031557 | 52 | 0 | 0.0 | 0.0 | 0.00 | 0.00 | 0.00 | 86 | 1013.2 |
| 20260510030052 | 53 | 0 | 0.0 | 0.0 | 0.00 | 0.00 | 0.00 | 85 | 1013.3 |
| 20260510024554 | 53 | 0 | 0.0 | 0.0 | 0.00 | 0.00 | 0.00 | 83 | 1013.4 |
| 20260510023053 | 54 | 0 | 0.0 | 0.0 | 0.00 | 0.00 | 0.00 | 82 | 1013.2 |
| 20260510021552 | 55 | 0 | 0.0 | 0.0 | 0.00 | 0.00 | 0.00 | 81 | 1013.0 |
| 20260510020056 | 56 | 0 | 0.0 | 0.0 | 0.00 | 0.00 | 0.00 | 79 | 1012.8 |
| 20260510014556 | 56 | 0 | 0.0 | 0.0 | 0.00 | 0.00 | 0.00 | 77 | 1012.4 |
| 20260510013057 | 57 | 0 | 0.0 | 0.0 | 0.00 | 0.00 | 0.00 | 75 | 1011.9 |
| 20260510011559 | 58 | 157 | 0.0 | 1.0 | 0.00 | 0.00 | 0.00 | 72 | 1011.8 |
| 20260510010131 | 60 | 156 | 0.0 | 0.0 | 0.00 | 0.00 | 0.00 | 70 | 1011.5 |
| 20260510004555 | 61 | 0 | 0.0 | 2.0 | 0.00 | 0.00 | 0.00 | 65 | 1011.1 |
| 20260510003052 | 62 | 0 | 0.0 | 2.0 | 0.00 | 0.00 | 0.00 | 63 | 1011.1 |
| 20260510001553 | 64 | 216 | 0.0 | 1.0 | 0.00 | 0.00 | 0.00 | 60 | 1010.9 |
| 20260510000054 | 65 | 0 | 0.0 | 1.0 | 0.00 | 0.00 | 0.00 | 57 | 1010.6 |
| 20260509234625 | 67 | 238 | 0.0 | 2.0 | 0.00 | 0.00 | 0.00 | 52 | 1010.3 |
| 20260509233054 | 68 | 71 | 1.0 | 8.0 | 0.00 | 0.00 | 0.00 | 48 | 1010.2 |
| 20260509231552 | 70 | 0 | 1.0 | 5.0 | 0.00 | 0.00 | 0.00 | 45 | 1010.1 |
| 20260509230051 | 71 | 23 | 4.0 | 11.0 | 0.00 | 0.00 | 0.00 | 44 | 1010.0 |
| 20260509224552 | 72 | 0 | 1.0 | 6.0 | 0.00 | 0.00 | 0.00 | 43 | 1010.2 |
| 20260509223053 | 73 | 0 | 1.0 | 8.0 | 0.00 | 0.00 | 0.00 | 43 | 1010.1 |
| 20260509221550 | 71 | 150 | 3.0 | 7.0 | 0.00 | 0.00 | 0.00 | 43 | 1010.4 |
| 20260509220107 | 72 | 178 | 3.0 | 7.0 | 0.00 | 0.00 | 0.00 | 42 | 1010.3 |
| 20260509214553 | 72 | 87 | 3.0 | 7.0 | 0.00 | 0.00 | 0.00 | 44 | 1010.3 |
| 20260509213052 | 71 | 160 | 5.0 | 10.0 | 0.00 | 0.00 | 0.00 | 43 | 1010.2 |
| 20260509211555 | 71 | 278 | 0.0 | 10.0 | 0.00 | 0.00 | 0.00 | 42 | 1010.1 |
| 20260509210053 | 71 | 40 | 6.0 | 20.0 | 0.00 | 0.00 | 0.00 | 42 | 1010.0 |
| 20260509204553 | 71 | 54 | 8.0 | 17.0 | 0.00 | 0.00 | 0.00 | 42 | 1010.0 |
| 20260509203129 | 70 | 65 | 6.0 | 12.0 | 0.00 | 0.00 | 0.00 | 43 | 1009.6 |
| 20260509201610 | 71 | 72 | 1.0 | 6.0 | 0.00 | 0.00 | 0.00 | 42 | 1009.4 |
| 20260509200059 | 71 | 193 | 2.0 | 14.0 | 0.00 | 0.00 | 0.00 | 41 | 1009.4 |
| 20260509194554 | 71 | 18 | 6.0 | 12.0 | 0.00 | 0.00 | 0.00 | 42 | 1009.3 |
| 20260509193111 | 72 | 58 | 6.0 | 17.0 | 0.00 | 0.00 | 0.00 | 42 | 1009.4 |
| 20260509191607 | 72 | 74 | 6.0 | 16.0 | 0.00 | 0.00 | 0.00 | 41 | 1009.3 |
| 20260509190052 | 72 | 75 | 2.0 | 8.0 | 0.00 | 0.00 | 0.00 | 41 | 1009.4 |
| 20260509184555 | 72 | 349 | 3.0 | 12.0 | 0.00 | 0.00 | 0.00 | 40 | 1009.4 |
| 20260509183053 | 72 | 15 | 8.0 | 16.0 | 0.00 | 0.00 | 0.00 | 41 | 1009.5 |
| 20260509181600 | 71 | 6 | 5.0 | 10.0 | 0.00 | 0.00 | 0.00 | 43 | 1009.4 |
| 20260509180103 | 70 | 61 | 4.0 | 17.0 | 0.00 | 0.00 | 0.00 | 44 | 1009.5 |
| 20260509174552 | 70 | 72 | 5.0 | 19.0 | 0.00 | 0.00 | 0.00 | 41 | 1009.5 |
| 20260509173103 | 70 | 52 | 5.0 | 14.0 | 0.00 | 0.00 | 0.00 | 42 | 1009.7 |
| 20260509171555 | 70 | 139 | 5.0 | 17.0 | 0.00 | 0.00 | 0.00 | 40 | 1009.8 |
| 20260509170058 | 69 | 31 | 4.0 | 8.0 | 0.00 | 0.00 | 0.00 | 49 | 1010.1 |
| 20260509164602 | 68 | 0 | 3.0 | 9.0 | 0.00 | 0.00 | 0.00 | 51 | 1010.1 |
| 20260509163112 | 68 | 94 | 1.0 | 6.0 | 0.00 | 0.00 | 0.00 | 53 | 1010.2 |
| 20260509161602 | 69 | 185 | 0.0 | 5.0 | 0.00 | 0.00 | 0.00 | 55 | 1010.3 |
| 20260509160057 | 67 | 109 | 2.0 | 4.0 | 0.00 | 0.00 | 0.00 | 59 | 1010.4 |
| 20260509154555 | 65 | 78 | 1.0 | 3.0 | 0.00 | 0.00 | 0.00 | 60 | 1010.6 |
| 20260509153055 | 63 | 87 | 1.0 | 3.0 | 0.00 | 0.00 | 0.00 | 64 | 1010.7 |
| 20260509151604 | 62 | 0 | 0.0 | 2.0 | 0.00 | 0.00 | 0.00 | 65 | 1010.9 |
| 20260509150054 | 60 | 0 | 0.0 | 2.0 | 0.00 | 0.00 | 0.00 | 70 | 1011.0 |
| 20260509144601 | 59 | 83 | 1.0 | 3.0 | 0.00 | 0.00 | 0.00 | 70 | 1011.0 |
| 20260509143055 | 58 | 90 | 0.0 | 2.0 | 0.00 | 0.00 | 0.00 | 73 | 1011.1 |